Location: Arrien
(42.8963°N, 1.0429°E)
Time: 14:12:32
(UTC+00:00)

USA 238 - Pass Details

Date: 11 December 2025
Orbit: 883 x 1328 km, 63.4° (Epoch: 10 January)

Event Time Altitude Azimuth Distance (km) Brightness Sun altitude
Rises 18:29:44 0° 225° (SW) 3,510 7.3 -22.6°
Reaches altitude 10° 18:32:11 10° 229° (SW) 2,602 6.5 -23.1°
Maximum altitude 18:38:11 63° 311° (NW) 1,075 3.8 -24.2°
Enters shadow 18:41:25 30° 22° (NNE) 1,709 4.5 -24.7°
